User: anonymous   Login
Location: Unspecified
(0.0000°N, 0.0000°E)
Time: 09:25:26
(UTC+00:00)
Language:

Hubble Space Telescope - Orbit

View from above orbital plane
View from above orbital plane
View from above satellite
View from above satellite

Ground track
Ground track

The orbit data is extracted from the following two-line orbital elements,

1 20580U 90037B   19145.95200343 +.00000357 +00000-0 +10745-4 0  9996
2 20580 028.4706 008.9151 0002601 226.8701 260.0214 15.09227785397216
Epoch (UTC): 25 May 2019 22:50:53
Eccentricity: 0.0002601
inclination: 28.4706°
perigee height: 537 km
apogee height: 540 km
right ascension of ascending node: 8.9151°
argument of perigee: 226.8701°
revolutions per day: 15.09227785
mean anomaly at epoch: 260.0214°
orbit number at epoch: 39721

The dashed part of the orbit path shows where the satellite is in the earth's shadow,  

DLR